{"data":{"norad_id":30794,"epoch":"2026-09-19T22:33:19.191744Z","epoch_age_seconds":62827,"freshness":"FRESH","line1":"1 30794U 07007B   26262.93980546 -.00000274  00000+0  00000+0 0  9991","line2":"2 30794   5.5356  72.5353 0003486 117.2477 242.6210  1.00270903 71641","mean_motion":1.00270903,"eccentricity":0.0003486,"inclination_deg":5.5356,"raan_deg":72.5353,"arg_perigee_deg":117.2477,"mean_anomaly_deg":242.621,"bstar":0,"rev_number":7164,"period_min":1436.1095361832,"perigee_km":35772.143507865,"apogee_km":35801.540931377,"semimajor_km":42164.979219621,"source":"CELESTRAK","updated_at":"2026-09-20T09:00:35.128915Z"}}